Location: Bogis-Bossey
(46.3500°N, 6.1667°E)
Time: 01:03:49
(UTC+00:00)

USA 238 DEB - Pass Details

Date: 07 March 2024
Orbit: 948 x 1263 km, 63.4° (Epoch: 09 April)

Event Time Altitude Azimuth Distance (km) Brightness Sun altitude
Exits shadow 02:04:25 40° 40° (NE) 1,479 4.7 -39.1°
Drops below altitude 10° 02:08:36 10° 40° (NE) 2,907 6.7 -38.6°
Sets 02:11:21 0° 40° (NE) 3,913 7.6 -38.2°
